DMSP 5D-2 F13 DEB, 40412

Orbit data source: Space-Track

DMSP 5D-2 F13 DEB, 40412 is space debris in SSO originally from a launch on Fri, 24 Mar 1995 UTC launched from the Air Force Western Test Range (AFWTR). Debris objects in space refer to the collection of defunct objects orbiting the Earth. Examples of debris include non-operational satellites, rocket bodies, and fragments generated from explosions, collisions, or faulty payload assembly.

Loading next visibility...
Identifier
40412, 1995-015Z
Orbit
SSO
Country
Flag of USUS
Related business
Manufacturer
Unknown
Mission
Spacecraft
Bus & Motor
Unknown
Mass
Unknown
Launch date (UTC)
1995-03-24 (31 years ago)
Launch vehicle
Unknown
Launch site
Air Force Western Test Range (AFWTR)
Object type
Payload
Rocket body
Debris
Shape & HBR
Unknown shape, 0.1 m
Radar Cross Section
Small (<0.1 m²)

Expand to show TLE details & history
Last TLE update: 15 hours ago

TLE from 15 hours ago
0 DMSP 5D-2 F13 DEB
1 40412U 95015Z   26118.75394122  .00000246  00000-0  13361-3 0  9991
2 40412  98.7069 134.0666 0019477 149.3969 210.8349 14.20976062578911
Epoch: 2026-04-28T18:05Z
TLE epoch observation values (Epoch: 2026-04-28T18:05:40.521Z)
Latitude
0.00003°
Longitude
5.92304°
Altitude
837.021 km
Speed
7.428 km/s
True Right ascension
08h 56m 15s
True Declination
0° 00' 00"
Sunlit
Object was in daylight at epoch
Visualization orbit readout
Latitude
Unknown
Longitude
Unknown
Altitude
Unknown
Speed
Unknown
Apparent Right ascension
Unknown
Apparent Declination
Unknown
Sunlit
N/A
Visualization observer readout
Local Sidereal Time
16:42:27
Azimuth
Unknown
Elevation
Unknown
Doppler factor
Unknown
Orbital elements
Apogee altitude
833.229 km
Perigee altitude
805.193 km
Semi-major axis
7,197.348 km
Eccentricity
0.00195
Inclination
98.7069°
RAAN
134.0666°
Arg. of periapsis
149.3969°
True anomaly
210.72074°
Mean anomaly
210.8349°
Eccentric anomaly
210.7778°
Mean motion
3.55455 °/min
Orbital period
101.28 mins
BSTAR
0.00013361

Documentation

Showing up to 5 results
|